Theta_e
309 309 309 309 309 309 310 310 310 310 311 311 310 311 311 311 311 312 312 312 312 312 313 314 315 317 319 319 320 319 318 318 318 318 318 318 318 317 323 328 326 322 323 321 321 326 331 342 350 352 351 349 350 348 347 348 347 346 351 354 349 346 346 345 342 339 336 335 335 337 339 342 343 344 345 346 346 349 350 349 349 349 352 353 353 353 353 353
309 308 309 309 309 309 309 310 310 310 311 311 311 311 311 312 312 312 312 312 312 312 312 313 313 314 315 316 318 319 319 319 319 319 319 318 317 318 323 327 326 322 323 322 323 329 330 338 348 350 350 349 348 345 344 347 347 346 350 352 347 345 347 344 341 341 338 336 335 338 339 341 343 343 343 343 344 346 346 347 350 352 354 354 353 353 353 353
308 308 308 309 309 309 309 309 309 310 310 311 311 311 312 312 312 312 312 312 312 313 312 312 313 313 313 313 314 316 318 319 319 321 323 320 318 318 322 325 325 324 326 323 325 334 333 335 345 349 348 347 345 343 343 344 345 345 348 351 348 343 344 343 342 342 340 339 336 337 338 338 339 339 340 341 343 343 344 349 351 353 354 353 354 353 353 354
307 308 308 309 309 309 309 309 309 309 310 310 311 311 311 312 313 313 313 313 313 313 313 313 313 313 313 312 313 314 316 319 322 326 327 323 319 320 321 324 325 324 326 323 324 337 338 338 345 348 346 344 343 343 344 343 344 344 345 349 347 342 343 343 341 341 341 341 338 338 336 336 336 336 339 339 342 343 345 350 352 353 353 354 353 353 354 354
307 307 308 309 309 309 309 309 309 309 309 310 310 310 311 311 312 313 313 313 313 313 313 313 313 313 313 312 313 313 314 321 327 329 328 325 323 323 323 323 324 322 322 321 322 335 340 340 345 347 346 344 344 344 343 343 343 343 344 344 342 342 343 341 340 341 342 341 340 340 337 336 335 335 337 339 341 342 345 350 351 352 353 353 353 353 354 354
307 307 308 308 308 309 309 309 309 310 310 310 310 310 311 311 311 312 313 313 314 314 313 314 313 313 313 312 313 312 314 321 326 327 327 326 325 324 324 323 322 321 320 320 322 332 338 339 343 346 346 344 343 343 341 341 341 340 342 342 342 341 341 340 340 340 341 342 342 340 339 337 334 333 336 338 338 340 346 350 350 351 352 352 353 353 354 355
306 307 307 307 308 308 308 309 309 310 310 310 310 310 311 311 311 312 313 313 314 313 314 314 314 314 313 312 312 313 316 319 322 325 325 324 325 325 324 322 321 321 321 320 322 331 336 338 342 344 345 344 342 340 338 338 339 340 340 341 341 340 340 341 341 340 340 341 342 342 341 339 336 335 337 337 338 344 348 350 351 351 351 352 353 353 353 354
306 306 306 307 307 307 308 308 309 309 310 310 311 311 311 311 311 312 312 313 313 313 313 314 314 313 313 313 312 313 318 322 322 324 325 325 325 326 326 324 321 322 321 320 324 332 337 338 341 341 341 340 341 339 338 337 337 339 338 339 341 340 342 341 341 341 339 341 342 342 342 340 338 337 338 338 342 348 350 350 350 350 351 352 352 353 353 354
306 306 306 306 306 307 307 308 308 309 309 310 310 311 311 311 311 312 312 313 313 313 313 314 314 313 314 313 312 316 320 322 324 326 328 328 326 327 328 326 323 321 321 320 324 335 339 340 340 339 338 337 338 338 337 336 335 336 337 338 339 340 341 341 341 342 339 340 342 342 341 341 339 338 338 341 345 349 350 350 350 350 350 351 352 352 353 354
306 306 306 306 306 306 307 307 308 308 309 309 310 311 311 311 312 312 312 313 313 312 313 313 313 313 313 313 316 321 323 322 327 328 328 327 327 328 325 324 324 321 321 320 323 335 341 340 340 338 336 336 337 337 337 336 335 335 336 337 338 338 340 341 342 341 339 340 341 342 341 340 340 339 338 341 346 348 350 352 351 351 351 351 351 352 353 353
306 306 306 306 306 306 306 307 307 308 309 309 310 310 311 311 311 312 312 313 312 312 312 313 313 313 313 313 317 323 322 322 328 329 328 328 328 328 325 323 325 323 321 322 323 334 340 339 338 335 334 335 334 335 335 336 335 335 335 335 335 335 338 340 341 340 339 339 341 341 340 339 340 340 339 342 346 347 350 352 351 352 351 351 351 352 352 352
306 306 306 306 306 306 306 306 307 307 308 309 310 310 311 311 311 312 312 313 312 312 312 312 313 312 313 314 316 321 322 321 325 326 328 330 330 330 328 326 328 326 325 327 326 331 337 337 336 334 332 332 332 332 333 334 335 335 335 333 333 333 334 338 339 339 339 339 341 340 339 340 341 340 338 342 346 347 348 350 350 350 351 351 351 352 351 350
306 306 306 306 307 307 307 307 307 307 308 309 310 310 311 311 311 312 312 313 312 312 312 312 312 311 314 317 319 320 321 321 322 323 325 329 330 331 330 329 329 329 328 329 329 330 333 334 333 333 333 331 331 331 332 333 334 334 334 332 332 331 332 337 338 338 338 338 340 339 336 339 342 341 337 339 344 346 347 347 348 349 349 349 350 351 350 349
307 306 306 306 307 307 307 307 307 308 308 309 310 311 311 310 311 311 312 313 312 312 312 312 312 313 316 319 319 321 322 321 322 323 324 326 328 328 329 329 330 331 331 329 329 330 331 332 332 331 330 329 329 329 329 330 332 332 332 331 331 328 329 336 336 337 337 337 340 339 336 339 343 341 337 336 341 345 346 346 346 347 349 348 348 350 349 349
309 308 307 306 307 308 308 308 308 308 308 310 311 311 311 311 311 312 313 313 312 312 311 311 312 315 322 324 319 323 325 324 323 322 324 325 326 327 327 328 328 329 331 331 330 330 330 331 331 329 328 327 327 327 327 328 329 330 327 327 330 327 328 334 334 336 336 336 339 338 336 340 343 341 339 337 340 344 344 345 346 346 348 347 347 349 347 348
310 309 309 308 307 308 309 308 308 308 309 311 311 312 312 311 311 312 312 311 311 312 310 314 319 321 326 329 324 326 328 327 325 321 323 325 326 327 327 327 327 326 328 329 329 329 329 330 330 329 327 327 326 327 327 326 326 329 327 323 326 327 327 331 333 335 335 336 339 337 338 343 347 343 340 338 339 342 343 344 345 345 347 346 347 349 348 347
310 310 310 309 309 308 309 309 308 308 309 310 311 313 312 312 313 314 316 316 313 312 311 317 326 327 327 328 326 328 328 328 328 323 323 325 326 327 327 327 326 326 326 326 327 328 329 329 330 329 328 326 327 327 324 321 321 325 327 325 326 327 326 327 332 336 335 337 339 339 341 345 347 343 340 340 338 339 341 342 343 344 346 346 345 348 348 347
309 309 310 310 310 309 309 309 308 308 309 310 311 311 313 317 319 320 323 323 319 317 317 320 325 327 328 326 327 327 325 327 328 327 326 325 326 326 326 327 326 325 326 327 327 327 328 329 330 329 328 326 326 326 321 319 321 322 324 324 324 327 327 327 331 336 336 338 339 339 341 344 345 343 341 341 339 339 339 340 342 342 345 345 345 346 347 347
309 309 310 310 310 310 310 310 309 307 308 310 311 311 316 320 320 324 325 324 325 326 328 326 324 325 324 324 327 326 326 327 327 328 327 327 326 325 326 326 325 326 327 327 326 327 328 329 329 328 327 326 326 326 323 324 327 326 326 325 324 325 327 330 333 336 337 337 339 339 339 341 343 343 342 342 342 339 338 340 341 341 343 343 343 346 347 347
309 309 309 310 311 311 310 310 308 307 308 310 310 314 320 319 318 324 323 320 324 326 326 326 325 323 323 325 327 326 329 329 326 328 328 327 326 326 327 326 327 328 327 327 326 326 328 327 327 326 326 327 327 327 326 327 329 329 328 327 326 326 326 332 334 336 338 336 338 341 340 340 344 344 343 342 342 341 340 340 339 341 343 343 343 345 347 348
308 308 309 309 310 311 311 310 308 308 309 309 311 316 320 319 316 318 317 316 318 318 318 320 321 323 326 328 328 329 331 330 327 328 328 327 327 325 326 326 327 328 327 327 326 327 328 326 325 326 327 327 327 328 327 327 329 329 329 326 326 326 327 333 335 336 337 336 337 341 341 341 344 344 343 342 342 342 341 340 339 341 342 342 343 345 346 348
307 307 308 308 310 311 312 310 308 309 310 311 313 316 317 317 316 315 315 315 315 315 316 316 316 319 321 323 326 328 329 328 327 328 328 327 326 326 326 325 327 328 327 327 327 327 325 324 325 326 327 326 326 327 327 327 328 328 328 326 324 327 329 331 335 337 336 336 337 340 341 341 343 343 344 342 341 342 342 343 341 340 342 342 343 344 347 348
306 306 307 307 309 311 312 310 309 311 311 310 313 315 315 315 316 315 315 315 315 315 315 315 316 316 316 318 320 322 324 326 327 328 328 328 327 326 325 324 325 328 327 327 327 324 321 323 326 326 326 327 326 326 327 327 327 328 327 325 323 327 327 325 331 337 337 337 339 341 340 342 344 344 346 343 340 341 342 343 343 342 341 342 342 343 346 348
305 305 306 306 307 310 312 310 311 313 311 310 313 314 316 315 314 314 314 314 315 316 316 317 317 316 317 318 318 319 320 323 325 327 328 328 327 325 324 325 325 326 327 328 327 325 323 325 326 326 326 326 326 326 327 326 325 327 328 326 325 328 328 326 331 335 336 336 339 340 335 338 344 345 346 344 342 342 341 341 344 343 342 342 342 343 344 347
305 304 305 305 306 308 311 312 315 314 311 313 314 315 315 314 314 313 314 315 316 318 319 320 318 318 320 319 318 319 319 322 324 325 327 327 327 325 324 325 325 326 326 327 328 326 325 326 326 326 326 326 325 326 326 325 322 323 328 330 328 329 330 331 332 332 331 331 337 337 329 333 343 343 345 345 345 345 343 343 342 342 344 343 343 343 343 345
304 304 304 304 304 306 310 313 314 312 310 313 314 315 315 314 314 312 314 317 318 321 321 320 321 321 321 319 318 319 319 321 323 324 326 327 327 326 324 324 325 326 326 327 327 327 326 327 326 326 325 325 325 324 326 326 321 319 326 330 331 330 330 331 330 328 327 328 337 337 332 333 338 339 345 345 345 347 346 347 344 342 345 344 343 344 343 345
304 304 304 304 304 305 307 311 312 310 310 311 312 314 314 313 312 312 316 319 321 325 323 321 322 322 322 321 319 319 319 320 322 323 325 326 327 327 324 324 325 325 327 327 324 325 328 328 326 326 326 325 324 323 325 326 321 319 326 330 330 330 330 330 328 326 328 332 336 335 335 335 333 338 346 346 345 347 346 349 346 343 344 344 344 345 344 345
304 304 304 304 305 303 303 307 310 310 310 311 311 311 311 311 312 313 318 322 326 326 324 322 323 322 322 321 320 320 321 322 322 323 323 325 326 326 324 324 325 325 327 326 321 324 328 328 327 327 325 324 323 324 325 326 323 323 328 329 330 331 330 331 329 325 329 330 328 332 333 332 332 341 347 345 345 346 346 347 347 345 344 344 344 345 346 345
305 305 304 304 305 304 303 305 308 311 311 310 311 312 311 311 312 314 319 324 326 323 324 323 324 323 321 322 320 320 322 323 323 323 323 324 324 325 323 323 325 325 326 326 324 326 327 328 328 327 326 325 325 326 326 326 325 325 328 328 329 330 330 332 329 326 326 325 324 329 330 328 331 339 344 343 342 344 346 347 346 346 344 344 343 344 345 345
305 305 305 304 304 305 305 306 308 311 310 310 311 312 311 311 314 316 320 325 324 322 325 324 324 324 322 321 321 321 322 322 324 324 323 323 324 323 323 324 324 325 326 326 325 326 328 327 328 328 327 327 327 327 326 325 326 326 327 327 326 328 330 332 331 328 324 322 325 329 330 329 329 335 340 342 342 343 346 347 346 346 345 345 344 343 345 345
305 306 306 305 305 304 305 307 309 309 309 309 310 310 311 313 316 317 321 324 321 324 326 324 324 324 323 322 321 321 321 322 324 324 323 323 323 322 323 323 324 323 323 324 325 326 327 327 328 329 329 328 327 327 327 327 326 326 326 325 322 322 325 325 327 327 322 320 325 330 330 327 326 333 340 343 346 344 345 347 346 346 345 346 345 343 344 345
305 306 306 306 305 304 305 307 308 309 309 309 310 311 312 315 315 315 320 321 320 325 326 326 326 325 324 323 322 322 321 322 324 324 323 322 322 322 322 322 323 321 318 319 322 324 326 327 327 328 329 329 328 326 326 327 326 325 325 322 318 317 320 320 321 323 322 322 325 328 327 324 326 338 343 343 345 344 343 344 344 346 345 346 347 345 344 345
305 305 306 307 306 306 306 306 307 308 309 309 312 314 314 316 316 315 316 318 320 324 324 326 327 326 326 323 324 324 322 323 324 324 324 323 322 322 321 323 324 322 319 319 319 319 322 327 328 327 328 328 329 324 322 323 324 324 321 319 317 317 319 320 321 321 322 324 325 327 327 321 324 336 344 343 344 343 342 342 342 344 345 345 346 346 346 345
304 304 306 307 307 307 307 306 308 309 310 312 315 315 313 315 318 316 315 317 319 321 322 324 325 325 327 325 325 325 324 324 324 324 325 324 322 321 321 323 324 324 324 322 319 319 319 322 326 327 326 328 329 327 324 325 325 324 324 322 319 318 319 319 321 320 321 324 325 325 325 321 324 337 344 342 342 342 341 342 343 343 344 345 345 346 347 346
304 304 305 306 307 309 308 308 311 312 313 315 316 316 314 314 316 315 317 319 319 321 321 321 324 323 324 326 327 327 326 325 325 324 325 325 323 323 323 323 324 325 324 320 320 321 318 320 327 328 327 329 329 329 329 327 323 324 326 322 318 320 321 320 322 322 320 323 323 322 324 328 335 346 348 340 341 342 341 342 342 342 343 344 345 346 346 346
303 304 305 306 309 312 310 310 313 314 314 315 316 317 316 314 315 316 318 320 320 321 319 318 321 321 321 324 326 328 327 326 326 324 324 327 326 325 326 325 325 325 324 322 322 321 317 320 327 329 327 329 329 329 330 327 323 323 322 319 320 325 325 320 320 322 321 321 323 321 323 329 333 340 344 342 341 342 342 343 342 341 342 343 345 346 345 345
304 305 305 308 313 314 312 312 315 315 315 315 317 318 316 313 314 315 316 318 318 318 317 315 318 318 318 320 323 327 327 326 326 323 322 326 327 327 328 327 327 326 326 324 323 324 321 320 326 329 327 327 329 329 330 329 326 323 319 320 325 327 326 322 319 320 321 320 321 321 322 325 326 332 341 343 341 341 342 343 342 342 342 343 345 345 345 346
307 306 306 310 313 314 313 313 315 317 316 316 317 319 317 315 316 315 316 317 316 317 317 315 316 317 317 318 321 326 327 324 325 324 323 324 324 327 328 328 327 327 326 326 324 326 324 319 324 329 328 328 329 327 326 328 328 325 322 325 326 321 319 320 318 319 320 319 319 320 321 323 325 331 339 341 340 341 342 341 341 343 343 344 345 346 345 346
308 308 308 310 312 313 314 315 316 317 317 317 318 318 317 316 317 316 316 316 316 316 316 315 317 317 317 317 318 323 325 324 325 325 323 323 324 326 329 328 328 327 327 326 325 326 326 321 320 327 329 328 328 326 322 323 327 326 326 326 325 321 319 319 319 319 320 320 320 321 321 324 332 338 340 342 344 341 342 343 341 342 343 344 345 346 346 346
307 308 309 309 311 313 314 315 316 318 317 318 318 317 317 317 317 318 317 317 317 317 316 317 317 316 317 318 317 319 322 323 326 326 324 325 325 326 328 328 328 328 327 326 326 325 326 324 319 325 330 326 325 325 324 324 324 323 322 321 321 322 322 321 319 318 319 320 321 322 320 324 338 345 341 345 346 342 342 343 342 340 341 342 344 345 346 346
306 307 309 308 309 310 311 312 314 316 316 316 316 315 316 316 316 317 318 318 317 317 318 317 317 317 317 317 317 318 318 319 322 325 326 326 325 325 328 329 328 328 327 327 326 325 324 324 321 321 323 321 324 329 328 327 326 324 322 320 320 321 319 318 318 319 318 318 320 321 320 328 342 343 340 345 346 342 341 342 341 340 339 340 342 342 344 345
306 307 308 305 305 307 308 309 312 314 315 315 315 315 315 315 315 315 316 316 316 317 318 318 319 319 318 317 317 317 317 317 318 321 325 326 327 327 327 329 329 329 329 327 326 326 326 326 322 319 321 324 327 330 329 328 328 327 325 324 324 323 319 316 317 321 319 317 320 319 319 331 346 342 340 346 347 342 340 341 342 339 338 340 340 341 343 344
306 307 306 304 304 307 308 309 311 312 313 314 314 314 314 314 314 314 315 315 315 316 317 318 318 319 319 319 319 318 318 317 316 318 321 324 327 328 327 328 328 328 330 328 326 329 331 327 322 320 323 327 328 329 329 329 328 326 325 326 325 323 321 319 322 328 322 317 321 320 317 326 340 344 344 347 349 345 338 339 341 339 338 339 339 341 343 343
306 306 306 305 306 308 309 309 310 311 312 313 312 312 312 313 312 313 313 313 314 315 315 316 318 318 320 320 319 319 318 317 317 318 319 321 323 325 326 328 327 328 329 328 329 328 327 325 323 321 321 323 325 327 327 326 326 326 326 326 326 325 325 322 323 327 323 320 321 320 320 330 341 342 341 342 346 346 340 338 339 338 338 339 339 340 343 344
306 306 307 306 308 309 309 310 310 310 310 310 310 310 310 312 312 313 313 313 314 315 315 316 316 317 319 319 320 320 320 318 317 317 319 320 320 321 323 324 326 328 328 332 335 329 326 327 325 320 319 319 320 321 323 324 324 325 327 327 326 326 324 322 319 319 322 327 325 318 321 334 343 338 334 334 339 344 345 340 339 339 338 338 338 339 342 344
305 306 306 307 308 308 309 310 309 309 310 310 311 311 311 312 313 313 314 314 315 315 315 315 316 316 317 317 317 318 320 321 320 319 319 319 319 321 322 323 324 324 329 341 341 330 328 330 327 324 321 321 323 327 331 330 325 322 325 326 327 327 325 324 320 315 322 328 327 327 329 330 336 339 336 333 334 339 348 345 339 340 340 339 339 339 342 345
305 305 306 307 308 308 308 309 309 309 310 310 310 311 311 311 311 312 313 313 314 314 314 314 315 314 313 314 316 317 318 319 320 321 321 321 320 321 320 320 322 323 330 341 341 334 332 329 327 328 326 326 331 334 333 332 327 323 325 325 326 328 326 324 319 318 323 321 320 334 341 331 331 336 336 339 339 338 349 351 340 337 341 342 340 340 342 344
305 305 306 306 307 307 307 308 309 308 308 309 309 309 310 310 310 311 312 312 313 313 313 313 313 313 312 312 314 316 317 318 319 318 318 318 317 318 319 320 322 323 326 331 333 338 339 331 328 328 326 326 329 330 330 331 329 327 327 326 326 328 326 323 322 324 328 323 319 329 341 341 343 339 334 343 348 341 343 347 339 334 340 345 345 345 345 345
305 305 306 306 306 307 307 307 308 308 308 309 309 309 309 310 310 310 311 311 311 312 312 313 312 312 312 311 313 315 316 317 318 316 316 316 316 317 318 319 321 322 322 323 329 335 336 334 334 328 325 326 327 328 328 328 327 327 327 327 327 327 326 325 326 326 328 328 327 330 337 344 349 341 333 338 342 339 337 339 337 335 339 346 349 347 345 346
305 305 305 306 306 306 307 307 307 307 307 308 309 309 308 309 310 310 310 310 310 310 311 311 312 312 311 311 312 313 313 314 314 314 314 315 316 317 318 319 320 321 320 320 326 330 331 333 336 330 325 325 326 327 327 326 326 325 326 329 328 327 326 326 326 327 327 328 330 332 334 337 341 341 338 334 332 335 338 338 336 335 340 346 348 345 346 351
304 305 305 305 305 306 307 307 307 307 307 308 308 308 308 309 309 309 310 310 309 310 310 310 311 311 311 311 311 311 312 312 312 312 312 314 315 317 317 318 319 319 321 322 322 327 331 332 333 331 326 324 327 328 327 326 327 324 323 327 327 325 326 325 325 327 326 327 329 330 329 334 342 343 338 334 334 336 341 341 336 333 337 342 345 344 346 350
304 305 305 304 305 306 306 306 306 306 307 308 308 308 308 308 308 308 309 310 310 310 310 310 311 311 311 311 311 311 311 311 311 312 312 313 315 316 317 319 320 319 321 323 322 325 330 330 330 329 325 324 327 327 327 326 323 320 322 327 329 329 329 327 328 329 328 326 326 326 329 341 352 348 337 334 334 335 337 337 333 332 334 336 339 342 344 345
Wind_Speed
19 19 18 17 17 17 17 17 18 18 17 17 17 18 17 17 17 16 17 17 17 17 18 18 18 19 19 19 21 22 23 24 23 25 30 26 17 16 14 9 8 12 16 11 11 17 20 22 21 20 19 17 18 18 16 16 16 11 4 2 4 3 4 4 5 2 7 8 5 10 14 10 9 16 21 21 21 25 20 18 24 22 27 30 30 35 35 34
20 19 19 18 18 18 18 18 19 19 19 18 18 19 18 18 18 17 18 17 17 17 17 18 18 18 18 19 20 22 24 24 26 30 26 18 13 17 17 15 10 11 15 13 14 20 23 24 21 20 21 19 17 18 17 16 17 10 3 3 4 4 5 6 9 7 3 7 8 12 15 13 12 14 16 14 16 22 17 18 26 27 29 32 35 35 34 35
20 20 20 19 19 20 20 20 20 20 21 20 19 20 20 19 19 19 18 18 18 17 17 18 18 18 17 18 19 21 23 26 29 24 12 7 14 18 18 17 15 15 17 15 15 20 22 22 21 20 21 18 16 18 16 16 15 12 7 3 5 7 8 11 15 11 1 7 8 11 15 15 14 14 14 13 15 15 13 20 24 27 32 35 36 36 35 35
19 19 19 20 20 20 21 21 22 21 22 21 21 20 20 20 20 20 19 19 18 17 18 18 18 18 16 17 18 18 21 23 20 10 6 1 10 14 15 15 15 18 20 19 16 20 21 19 20 21 18 14 17 19 15 16 13 12 10 5 8 11 8 10 13 13 4 9 5 8 14 15 15 14 15 16 13 8 15 28 29 31 36 36 38 37 36 34
19 19 19 20 20 21 21 22 22 22 22 22 22 22 22 21 20 20 20 19 18 18 18 18 19 18 16 16 16 17 16 11 5 2 5 3 4 7 9 11 13 15 19 20 18 21 22 21 22 21 16 11 15 15 15 23 18 10 11 13 16 11 3 6 10 15 6 10 6 5 7 13 18 13 18 21 11 9 22 35 37 37 39 39 39 37 36 36
19 19 20 20 20 21 21 21 22 22 23 23 23 23 23 22 21 21 20 19 18 18 18 18 18 17 16 15 15 15 9 4 1 1 2 3 2 3 5 7 10 12 16 19 21 23 24 25 24 20 15 10 12 12 14 24 20 8 9 18 21 11 7 6 13 16 8 11 8 6 5 13 15 8 18 24 14 20 35 39 41 39 39 40 39 38 36 36
20 20 20 20 20 21 21 21 22 22 23 23 23 23 23 23 22 21 20 19 18 18 18 18 18 18 17 14 15 14 11 16 11 4 8 9 6 6 6 7 9 11 15 20 25 25 23 26 25 21 14 10 13 13 15 20 19 11 6 13 18 15 13 9 14 16 12 13 9 9 9 10 10 5 11 16 15 30 42 40 41 40 39 38 37 37 36 36
20 20 20 20 21 21 21 22 22 22 23 23 23 24 24 23 23 22 21 19 18 17 19 18 17 17 17 14 13 13 15 19 10 5 12 15 14 13 10 10 10 11 15 20 28 27 22 23 24 21 11 8 14 13 17 18 13 13 10 12 14 17 19 14 12 18 14 14 14 13 10 9 10 8 6 12 27 38 41 39 39 39 38 37 36 37 36 35
22 21 21 21 21 21 21 22 22 22 22 22 23 23 24 24 23 23 21 20 18 17 18 18 18 17 16 15 11 10 14 12 6 5 7 11 18 18 15 13 12 14 15 18 28 26 20 21 23 22 12 12 16 14 18 14 7 11 16 18 14 16 21 19 14 18 12 12 17 14 9 8 9 10 6 20 39 39 40 38 37 38 37 35 35 36 36 36
23 22 22 22 21 22 22 22 21 22 22 22 23 23 24 24 24 23 22 21 18 18 18 17 17 16 15 14 7 7 11 8 5 9 7 9 13 15 15 14 13 15 16 17 27 27 21 21 21 23 18 16 15 14 18 13 10 17 16 20 18 17 20 22 19 18 13 14 20 13 8 12 13 9 4 22 40 38 41 38 36 37 35 35 34 34 36 35
23 23 23 23 23 23 23 23 22 22 22 22 22 22 23 23 23 23 23 21 18 18 18 17 17 16 16 14 9 10 9 6 6 7 5 9 9 9 10 12 12 14 16 16 24 27 23 21 20 20 16 13 13 14 18 19 20 24 19 13 12 11 13 20 18 17 15 14 22 16 9 14 15 8 5 26 40 38 40 37 35 35 32 33 32 33 35 34
23 24 24 24 24 24 24 24 24 24 23 23 22 22 21 21 22 23 24 21 18 18 18 17 16 16 15 16 22 19 9 8 10 9 9 12 9 4 4 9 12 13 14 15 21 25 21 20 21 19 14 10 11 9 13 22 23 22 18 10 8 11 8 16 16 18 15 13 26 20 8 12 11 8 13 32 38 37 39 36 34 33 32 33 31 33 34 34
24 23 23 24 24 24 25 25 25 25 25 24 23 22 21 21 21 21 23 20 18 18 18 17 16 17 13 17 30 26 17 15 15 13 14 16 11 5 5 8 13 13 13 14 17 20 19 19 20 21 20 13 9 9 13 20 20 17 13 6 6 10 7 14 17 19 15 14 30 21 4 8 9 10 20 31 33 36 35 33 33 32 33 32 32 34 33 33
24 23 23 23 24 25 25 25 26 26 25 25 24 22 21 21 20 20 21 20 19 18 18 17 14 14 12 21 32 27 22 19 17 18 16 17 16 12 11 10 14 16 14 14 15 16 18 19 20 20 21 17 13 14 14 14 11 9 8 5 4 5 4 8 12 14 12 16 31 20 2 7 9 13 24 28 29 35 32 31 33 30 33 32 31 35 34 32
24 24 24 24 24 24 24 24 25 25 26 25 24 22 21 20 20 20 19 18 18 18 18 15 12 11 13 25 33 20 14 16 22 26 20 19 21 18 16 13 15 17 16 15 15 16 18 18 20 18 16 18 16 12 8 6 6 5 6 6 3 3 6 8 9 10 8 13 27 17 2 7 8 11 26 29 28 35 32 30 33 30 32 32 30 35 35 31
27 25 25 25 25 25 25 24 24 25 25 24 23 21 20 19 19 20 18 18 18 18 17 11 8 8 9 17 20 11 10 16 21 24 22 21 23 20 17 16 16 17 16 16 16 16 17 18 19 18 15 13 10 6 4 4 5 5 6 5 4 5 6 8 9 12 10 9 17 13 3 5 6 7 21 31 28 31 30 29 32 31 32 32 30 34 34 31
29 28 26 25 25 26 25 24 24 24 24 23 22 20 18 16 17 18 18 17 17 16 14 7 2 5 13 17 14 12 15 17 16 17 21 22 22 20 17 17 19 19 19 18 17 18 18 18 15 13 13 8 5 5 4 5 5 5 5 5 7 9 7 7 7 11 13 9 11 11 6 5 7 6 14 27 29 26 27 29 32 31 32 33 31 33 34 32
31 30 28 27 26 26 25 24 23 23 24 22 20 21 17 12 15 17 14 12 11 8 9 8 5 1 13 17 12 15 16 16 15 14 19 22 22 21 19 20 20 21 21 17 18 20 17 15 11 5 7 7 6 7 7 7 7 7 7 5 7 10 9 8 5 7 9 10 12 10 8 7 10 10 14 26 30 24 23 29 31 32 34 34 32 33 34 34
31 31 30 28 26 26 25 24 22 21 23 20 17 15 11 14 16 10 7 8 3 4 4 8 14 7 8 12 12 17 15 12 15 15 17 20 21 20 21 22 22 21 18 11 13 19 14 8 8 6 6 8 9 10 9 9 11 12 11 8 8 8 7 10 8 9 9 8 10 11 9 8 11 11 12 24 30 24 23 28 29 30 33 35 34 34 35 35
30 31 31 29 27 26 25 23 21 19 19 18 17 11 9 16 12 3 8 12 14 14 17 16 21 22 19 22 22 20 14 10 17 17 16 17 18 20 22 23 21 18 12 7 9 16 14 7 7 9 8 9 10 12 12 11 13 14 13 11 10 7 7 12 11 12 12 7 8 10 11 9 10 9 10 23 28 21 21 24 25 28 32 35 33 33 36 36
30 30 30 30 28 26 23 22 19 15 13 14 16 14 11 14 9 7 16 21 22 22 27 30 28 30 30 30 30 25 20 13 16 18 15 18 20 17 19 19 13 9 9 9 9 14 14 8 9 11 11 11 11 13 14 14 15 14 12 11 9 8 8 12 9 14 16 8 8 11 11 9 10 9 9 19 21 15 20 22 22 27 31 34 34 34 37 36
29 29 30 30 28 26 23 20 17 11 9 10 13 13 12 13 10 13 18 19 25 26 28 33 33 36 37 35 35 32 25 18 14 18 16 20 21 16 15 14 8 5 9 11 8 9 10 9 11 12 12 13 13 13 15 16 15 11 10 9 9 8 7 11 9 12 15 7 7 12 11 7 10 11 8 13 16 16 25 28 27 30 31 33 35 34 36 36
29 29 29 29 27 25 21 19 15 9 8 9 12 14 14 14 13 16 17 15 26 29 28 34 36 39 39 36 37 33 24 19 16 19 22 22 22 20 16 12 9 8 9 11 10 7 7 9 12 13 12 14 15 14 14 13 12 10 9 8 9 9 8 9 7 6 11 9 8 11 10 6 8 10 7 11 17 20 28 32 32 34 33 35 38 37 37 37
27 28 28 29 28 25 21 18 11 7 9 9 12 15 14 13 13 19 19 11 16 21 23 29 32 39 41 35 33 30 26 22 19 19 25 26 22 21 15 10 10 9 10 12 14 12 8 8 14 15 13 14 14 14 13 10 9 11 13 11 9 10 12 10 9 7 7 9 10 11 7 4 7 10 7 10 14 15 23 29 29 33 36 37 39 38 38 39
27 27 27 28 28 26 22 14 6 8 11 7 10 11 9 12 15 20 17 7 8 12 15 18 23 32 36 28 26 27 23 23 26 24 25 30 25 16 12 13 10 8 12 14 14 12 11 11 15 17 15 16 14 13 14 11 7 10 15 17 14 12 13 12 13 9 3 5 5 8 5 4 6 11 10 9 9 9 14 18 21 28 34 35 36 37 38 39
25 25 26 27 27 28 22 9 7 14 13 7 9 10 8 12 16 18 11 3 5 7 7 10 15 15 19 25 28 25 13 18 33 31 25 29 31 20 11 10 9 9 12 12 9 6 9 14 14 14 16 18 16 12 14 14 9 8 11 16 18 17 16 14 15 10 3 5 7 8 5 3 5 9 10 11 12 12 10 9 13 23 30 32 34 37 39 39
26 23 24 25 24 26 22 14 14 16 12 11 13 11 11 13 14 14 6 2 5 6 6 9 11 6 12 25 31 23 6 11 26 32 31 28 31 27 14 8 8 9 9 7 7 5 9 15 16 16 15 14 14 11 12 14 10 8 9 13 17 19 20 18 15 10 3 5 10 13 9 4 4 7 9 12 14 14 12 10 11 17 27 32 34 37 40 40
27 23 22 24 22 20 20 21 20 15 11 12 12 11 13 13 13 11 3 2 3 2 5 7 7 3 9 23 34 26 10 8 13 25 39 31 27 27 15 10 10 9 11 7 7 8 9 14 15 17 15 10 11 11 12 14 11 9 10 12 14 17 19 17 13 9 6 4 6 11 10 5 4 6 8 11 13 13 14 15 12 14 24 31 33 35 39 41
28 25 22 23 22 16 15 20 18 14 12 11 12 13 13 12 11 6 2 3 5 1 4 8 6 4 10 20 29 27 16 11 7 20 38 33 27 24 13 14 13 8 13 12 9 8 8 14 16 15 13 9 9 11 14 15 11 9 12 13 12 12 14 14 11 8 7 6 6 9 11 6 3 6 7 8 10 12 13 14 13 14 21 28 32 33 36 40
29 27 24 23 23 19 17 17 12 12 15 14 13 13 13 10 5 2 4 4 4 1 4 6 6 7 12 14 17 20 16 14 11 17 31 31 31 28 17 19 17 8 9 12 12 11 11 16 16 12 11 10 10 11 14 16 13 9 11 12 11 10 9 8 8 6 6 6 6 9 14 10 5 5 8 8 9 11 11 11 13 16 21 27 32 35 35 38
29 28 26 24 23 21 22 16 7 7 13 15 15 14 12 6 2 3 5 3 4 3 4 3 6 9 14 12 11 15 14 14 12 10 17 19 21 21 14 13 13 7 7 8 11 13 14 15 11 9 13 13 11 11 12 14 13 10 8 8 7 7 6 6 5 5 7 7 6 8 12 12 7 6 8 10 11 14 12 12 15 17 22 27 32 35 36 37
28 28 27 24 21 20 23 19 9 8 13 12 13 13 8 2 5 6 3 1 3 6 6 6 9 10 14 14 11 13 13 12 11 8 9 11 10 13 13 9 8 8 8 7 8 10 12 13 10 10 14 14 11 8 8 10 11 10 7 5 6 6 5 6 5 4 6 7 7 8 9 9 7 6 12 14 14 15 14 14 18 21 25 31 33 35 36 37
27 27 26 23 22 21 22 19 10 8 9 6 8 9 3 4 5 7 6 4 4 4 2 4 7 8 12 12 9 12 13 10 11 11 10 13 10 11 15 14 11 8 7 7 7 7 7 11 14 12 10 14 14 7 5 7 8 10 8 6 6 6 6 6 5 4 5 5 7 11 10 7 6 5 14 18 15 17 18 20 24 28 32 35 34 35 36 37
26 26 25 22 22 21 20 17 8 4 4 2 5 5 5 7 4 6 8 8 9 13 13 9 8 8 10 12 10 10 10 10 13 12 10 12 11 9 13 16 16 11 5 6 7 7 8 8 12 13 8 10 16 11 6 5 7 10 9 7 6 6 6 6 5 4 4 4 7 13 10 5 5 7 14 17 17 21 25 27 28 31 36 39 38 38 38 38
26 23 23 24 21 17 13 11 5 2 3 4 5 5 8 7 2 2 5 6 8 11 15 17 14 12 10 10 12 14 11 9 13 13 11 11 11 9 11 14 17 14 8 7 6 7 11 8 8 15 13 10 12 13 10 7 7 7 6 7 9 9 5 4 4 4 4 4 5 7 6 4 4 7 11 15 16 19 21 25 27 27 32 38 40 41 41 39
27 22 21 20 16 13 7 11 8 7 9 8 6 7 7 5 2 3 4 4 7 7 12 17 13 9 9 6 9 15 14 10 13 12 10 11 12 12 11 11 16 18 12 8 5 5 9 7 8 15 17 15 12 12 13 12 6 3 7 10 8 7 6 4 4 4 4 6 5 3 4 3 4 5 5 10 15 16 15 18 21 24 28 31 35 38 38 37
28 24 20 13 10 13 6 12 12 13 14 10 8 8 5 5 7 8 8 11 16 14 11 11 8 8 8 6 7 12 14 10 12 11 8 11 12 14 15 11 16 21 18 11 6 5 6 5 9 15 16 19 19 13 15 16 10 4 6 7 2 1 4 3 3 4 4 6 5 4 6 5 5 5 4 9 14 16 15 14 15 19 23 26 31 37 39 38
26 26 20 8 13 19 6 9 11 16 15 9 10 11 7 8 11 12 14 17 18 15 10 7 5 8 8 6 7 9 12 10 10 10 9 9 8 13 17 13 13 20 23 19 9 5 6 5 7 14 15 17 19 14 11 15 15 9 5 3 3 4 5 4 4 4 5 6 4 5 8 7 6 5 6 11 14 15 16 15 14 14 15 21 30 38 41 40
23 24 16 3 16 21 7 5 13 18 13 8 8 8 7 10 14 18 22 22 17 12 10 7 6 8 10 10 10 10 10 10 11 10 8 8 8 14 18 14 13 17 21 22 13 5 6 4 4 10 12 13 13 10 8 9 11 10 8 5 5 5 5 6 5 3 4 5 4 6 8 6 5 6 8 10 13 16 16 15 15 12 15 23 29 35 40 41
20 18 10 0 12 16 8 3 12 14 8 9 9 8 8 10 13 19 24 20 14 11 9 8 9 10 11 13 13 11 11 11 10 11 9 8 9 12 18 16 13 15 20 22 17 9 7 6 4 6 8 10 10 9 9 9 9 10 9 9 8 4 3 6 6 6 5 4 4 5 6 5 5 5 8 9 10 13 15 16 16 14 21 31 34 36 41 43
18 11 8 5 11 18 16 11 9 9 7 9 10 10 11 13 14 17 24 24 18 16 15 14 13 12 11 13 14 11 9 12 11 9 9 11 10 8 14 18 15 14 15 18 17 11 6 6 5 5 6 7 7 10 14 14 12 11 9 10 11 6 4 5 6 7 8 6 5 5 4 6 5 5 8 10 9 11 13 15 15 16 23 32 37 40 44 46
14 9 16 17 16 23 21 12 7 7 7 10 12 14 15 15 14 16 21 24 20 18 18 16 13 13 13 12 13 13 10 10 13 10 6 10 12 9 11 18 20 19 14 11 14 15 8 5 5 7 7 8 8 11 19 19 16 13 11 11 10 7 6 6 5 5 6 6 6 5 6 6 6 7 8 9 9 10 14 15 13 17 26 32 35 38 44 49
12 16 28 25 18 21 15 6 6 7 7 12 17 19 19 16 13 14 16 17 15 13 13 12 13 13 12 11 13 14 12 11 13 14 12 11 10 10 15 18 17 18 16 10 10 14 11 6 6 6 6 9 12 9 15 20 17 12 11 11 10 9 8 7 5 3 4 5 5 4 7 6 5 6 7 7 7 7 14 22 20 18 25 31 32 32 38 47
16 24 31 24 17 15 10 4 5 6 7 13 15 17 20 18 16 16 15 14 13 11 10 12 13 14 13 12 14 15 14 11 12 13 13 11 9 10 14 22 21 14 11 10 8 11 10 7 6 5 5 6 9 8 9 16 15 9 8 11 13 14 12 9 7 4 3 7 8 5 5 6 6 8 10 9 7 5 8 21 26 22 24 29 31 31 38 47
16 18 21 21 20 16 11 8 9 8 9 14 15 16 18 15 15 16 14 13 14 12 9 10 13 14 14 12 12 14 14 12 12 13 12 11 11 14 15 15 19 15 11 15 17 14 10 8 8 8 8 8 9 7 5 8 10 9 9 12 15 17 16 10 6 5 6 8 10 8 6 5 5 12 16 17 13 7 4 9 19 23 26 32 33 31 37 48
11 9 10 15 18 16 12 13 13 8 7 9 9 12 13 10 12 18 17 13 13 14 12 9 12 14 12 14 14 12 12 13 13 12 11 12 10 9 20 26 19 16 17 19 20 13 7 7 11 13 11 9 8 7 5 4 7 11 13 15 14 15 17 12 6 7 6 4 6 7 7 7 5 8 14 17 15 8 5 4 8 14 17 23 26 23 31 47
7 5 7 9 11 11 13 15 12 7 9 10 6 8 14 13 12 16 16 12 12 15 13 9 10 11 13 16 14 11 14 16 15 13 12 12 13 15 24 27 19 21 27 19 16 12 5 7 14 17 17 13 9 7 9 10 10 12 17 18 16 15 15 13 10 11 7 4 7 8 5 7 9 10 12 12 11 9 9 7 8 11 12 13 14 15 24 42
7 9 12 12 9 7 9 14 16 13 13 13 8 8 15 14 10 11 12 11 13 12 8 7 9 11 14 15 11 10 15 13 10 14 15 15 16 18 21 19 13 19 26 15 11 9 3 5 11 15 18 18 15 12 13 14 12 11 15 17 17 17 17 15 13 12 9 6 9 9 5 6 8 10 10 8 7 9 8 8 14 15 12 16 14 14 23 36
10 12 15 13 9 10 14 18 20 17 14 12 8 9 13 14 13 12 10 9 11 9 7 9 11 11 13 14 10 8 11 11 10 12 14 17 17 13 13 16 13 16 19 15 10 5 5 3 7 11 13 17 19 18 17 16 14 11 11 15 17 19 20 19 15 11 10 10 10 10 10 10 8 7 9 8 7 7 3 2 6 10 10 20 21 17 19 24
13 11 12 10 9 13 17 18 16 13 11 10 8 7 10 13 15 13 11 10 11 8 6 10 14 13 13 13 11 9 10 12 13 14 14 16 15 10 7 8 11 15 15 14 12 6 6 5 4 5 6 11 17 19 19 19 16 14 13 13 16 19 19 18 16 13 10 9 9 9 10 10 8 6 7 10 7 4 1 2 0 5 6 22 28 25 23 20
16 15 14 10 8 10 11 11 10 8 8 8 6 7 9 11 14 15 14 13 14 11 7 9 12 12 12 12 11 11 14 15 16 17 19 17 15 13 10 7 10 16 15 11 11 9 6 4 5 3 1 4 8 13 19 21 17 17 20 17 15 15 13 13 14 14 12 10 8 8 8 8 7 6 6 9 8 4 3 3 3 6 5 15 23 29 32 27
16 16 14 8 5 8 9 8 8 7 7 7 7 9 11 11 14 15 12 11 14 14 12 10 9 7 7 10 12 12 16 20 22 23 25 26 25 23 22 20 17 15 13 11 11 10 8 4 5 4 2 2 3 6 13 16 15 16 18 16 11 8 8 9 10 12 14 13 9 7 7 6 5 5 7 9 10 7 6 5 6 9 9 13 16 22 32 35
Wind_Direction
333 331 331 329 327 324 322 320 317 315 314 313 313 312 311 310 308 307 306 306 306 305 305 303 302 300 301 301 299 298 297 297 296 290 281 272 257 239 226 222 224 204 209 208 186 189 186 185 187 193 204 216 222 225 228 226 227 232 212 215 263 279 281 267 290 293 125 127 159 145 130 119 109 115 124 134 136 140 148 144 140 138 135 141 143 145 147 148
333 332 331 329 326 323 321 318 316 315 313 313 313 312 311 310 309 308 307 307 306 307 306 304 303 302 302 302 300 300 300 301 300 292 283 273 245 222 210 207 210 199 201 203 192 191 189 188 192 196 207 220 223 226 232 220 214 218 176 204 241 253 256 261 278 296 82 142 156 136 139 139 139 143 146 147 140 146 147 128 130 128 130 138 143 147 148 150
333 333 330 328 326 323 322 319 317 315 314 314 312 312 311 310 310 308 308 306 307 307 306 305 304 304 304 304 303 303 304 307 304 300 301 251 217 201 197 201 206 212 215 221 207 195 196 193 192 196 208 224 230 231 233 219 208 205 202 211 236 241 245 245 255 270 207 146 145 144 149 137 147 161 156 150 142 151 140 126 130 130 136 142 146 150 151 152
334 331 328 326 325 323 322 320 318 316 315 314 312 312 310 310 310 309 309 308 308 307 306 305 302 305 307 307 306 306 310 312 303 307 25 163 195 183 192 198 208 220 221 229 217 201 203 199 196 200 208 222 232 236 236 224 206 198 202 199 239 243 245 244 255 270 211 147 146 146 138 131 156 167 153 150 150 156 137 137 142 142 145 147 149 153 154 156
332 328 326 326 325 323 321 319 318 317 315 313 313 312 311 311 309 309 309 309 310 308 306 303 301 304 305 308 308 308 315 324 310 303 37 63 142 161 191 202 216 223 219 225 214 201 207 207 202 204 213 229 230 232 237 229 216 206 197 195 230 236 237 266 265 276 249 143 137 121 123 138 154 172 160 156 165 164 147 146 148 149 150 152 154 156 157 159
331 328 327 326 324 322 320 318 317 315 314 312 311 311 311 310 309 309 308 309 310 308 307 303 302 302 303 310 305 305 305 276 247 82 17 9 51 145 182 204 214 217 217 216 206 204 212 213 208 204 210 228 237 233 237 228 214 219 199 198 222 199 140 257 258 260 227 151 153 149 149 144 148 187 169 167 189 162 151 152 152 153 154 156 157 158 161 162
332 331 329 326 325 322 319 317 315 313 312 310 309 309 309 308 308 308 307 309 309 309 307 302 303 301 303 309 302 300 272 262 267 223 244 265 250 212 204 216 216 215 217 210 203 206 214 217 212 211 212 214 237 245 254 245 221 225 229 203 206 177 162 214 256 254 203 161 163 159 152 166 169 189 173 174 174 148 147 152 152 154 156 158 160 161 164 165
333 332 330 328 326 322 319 317 315 312 310 308 308 307 306 306 306 305 306 306 308 309 305 302 303 300 302 303 306 301 270 274 288 230 244 245 233 234 231 230 227 223 222 209 202 202 214 223 214 216 225 227 235 238 250 256 235 224 234 226 195 179 183 183 240 253 212 165 159 155 152 197 184 163 183 130 127 136 142 147 150 153 156 160 164 165 167 168
334 333 331 329 326 324 321 318 316 313 310 308 306 305 304 304 303 303 303 303 306 307 302 303 302 299 302 300 306 293 270 291 311 224 230 226 226 235 239 242 238 228 228 212 202 202 217 229 217 215 225 239 240 242 247 248 239 231 221 226 206 190 191 175 215 240 219 177 163 156 154 189 163 152 187 124 125 136 141 145 150 154 158 163 167 168 170 170
334 334 332 329 327 325 322 320 318 314 311 308 306 304 303 302 301 301 299 300 302 303 299 299 299 299 299 295 298 267 271 305 265 216 197 207 223 238 240 240 238 225 225 215 204 205 219 229 219 219 230 242 244 247 255 254 259 265 241 225 215 201 189 177 204 219 208 186 164 159 160 165 155 164 201 130 132 136 139 145 151 154 160 165 170 172 173 173
335 334 332 330 328 325 323 321 319 316 314 310 307 304 302 301 300 298 296 297 298 299 297 295 297 295 291 284 255 245 280 302 226 216 220 215 220 246 237 217 222 219 216 215 208 207 217 227 225 227 230 238 257 261 266 267 269 279 278 257 233 218 187 177 199 208 202 179 161 163 161 154 153 185 179 134 137 139 142 147 153 158 162 166 172 174 175 177
334 333 332 330 327 325 323 321 319 318 315 312 309 305 303 300 297 296 293 294 295 295 292 293 295 289 289 272 249 247 289 288 238 246 247 222 210 241 233 203 218 221 213 213 213 213 218 229 237 247 245 231 251 270 278 274 275 285 292 304 300 290 239 189 194 200 200 174 163 162 160 156 151 194 161 137 141 142 144 149 155 160 163 168 174 176 178 180
334 333 331 328 326 325 323 321 319 317 315 313 311 309 307 300 296 294 290 290 292 291 288 291 292 286 282 262 259 266 285 276 245 243 234 222 223 226 229 218 221 224 218 216 218 220 222 230 240 252 258 253 250 265 287 283 281 285 288 298 286 294 263 196 194 196 200 181 166 157 169 168 158 189 156 141 147 144 145 153 157 161 165 170 175 176 180 182
334 332 330 327 326 324 322 321 318 317 315 312 311 311 308 300 296 292 289 289 288 287 287 288 288 282 264 261 274 283 283 274 249 236 221 220 233 225 223 224 223 225 220 220 224 225 225 230 239 248 254 259 269 277 288 290 284 281 284 287 249 277 285 216 204 194 196 182 164 151 165 168 169 182 153 149 154 146 149 156 159 164 165 171 176 176 182 187
335 333 331 328 325 324 324 323 319 317 315 311 311 312 308 302 297 292 288 285 282 282 285 287 285 272 262 274 285 291 277 259 241 232 214 219 236 224 217 221 222 226 223 223 228 232 236 233 231 238 245 252 262 275 284 289 296 290 273 279 248 239 273 265 236 199 191 170 154 144 156 164 173 179 153 156 157 149 154 158 161 166 166 172 176 174 181 189
336 335 332 329 326 325 325 325 322 320 315 313 313 310 308 303 295 291 289 283 278 279 280 288 296 275 265 281 288 286 255 241 240 234 215 221 237 225 214 220 220 223 225 226 230 233 241 244 236 230 230 240 245 245 268 283 286 277 254 255 250 230 234 262 247 196 184 163 147 141 152 159 170 191 161 159 161 155 156 159 163 167 168 172 175 175 181 188
336 335 333 331 328 325 327 328 327 323 318 318 317 314 311 304 297 297 293 283 277 275 275 268 308 283 263 267 272 262 249 242 246 235 216 217 226 223 215 218 219 218 220 223 229 230 232 239 241 229 223 225 215 203 223 244 249 259 254 247 252 245 226 240 234 183 178 166 150 145 141 153 160 197 180 163 165 165 159 160 165 167 169 173 176 177 181 187
334 334 334 333 330 327 327 329 331 326 321 323 325 319 315 322 319 308 302 293 273 264 270 231 176 305 266 255 259 270 262 243 236 223 216 216 217 222 217 216 220 214 212 215 221 223 222 227 230 231 219 213 210 204 204 210 221 238 242 239 242 248 249 250 229 177 179 158 152 155 151 163 161 183 196 169 168 174 165 163 166 169 170 174 178 178 181 188
333 333 333 333 332 329 328 331 333 328 324 328 331 320 322 350 337 318 346 340 259 213 273 211 186 194 270 262 265 281 278 240 224 214 212 213 210 215 213 216 220 209 202 203 208 208 206 212 221 228 224 211 207 211 214 209 217 233 241 240 233 235 244 254 236 179 177 159 155 161 160 176 172 180 190 168 168 177 170 165 168 171 171 174 178 179 182 188
333 332 332 332 332 330 329 332 333 329 328 332 343 349 358 359 347 338 359 315 268 260 274 254 221 224 254 271 269 274 280 240 212 207 206 202 197 203 211 217 217 206 200 198 192 197 198 208 220 218 221 220 213 214 222 223 225 237 247 248 245 240 227 243 237 176 168 170 168 163 165 185 178 173 176 165 169 175 171 168 170 171 171 175 179 179 182 189
334 332 332 331 332 332 332 334 334 332 330 331 345 357 353 355 358 330 327 302 276 267 264 263 253 243 250 260 262 268 287 276 209 199 201 192 187 194 206 214 215 199 199 208 198 193 200 217 222 217 221 227 225 216 219 228 231 233 246 256 258 257 245 252 237 167 165 176 176 166 167 186 176 166 171 166 169 176 173 172 175 173 171 176 179 180 184 189
336 334 333 332 331 333 334 335 334 326 321 332 348 355 345 345 343 319 321 302 284 276 260 259 258 252 252 253 254 259 276 281 229 203 196 187 189 187 184 195 217 209 189 206 213 194 203 223 220 215 216 223 233 225 216 224 231 233 242 254 259 266 273 274 258 171 168 174 170 169 170 182 173 168 177 171 172 179 178 177 179 177 172 175 180 181 184 187
338 337 335 333 332 333 335 336 330 316 321 339 346 353 351 339 331 320 318 297 288 283 260 253 249 245 246 243 245 248 254 261 247 217 198 187 192 192 182 182 205 217 198 202 215 209 210 214 212 219 219 216 228 231 223 220 226 233 238 243 250 258 267 273 273 196 178 170 158 166 174 181 169 169 182 183 180 181 181 181 181 181 178 178 181 184 184 185
341 341 337 335 334 333 336 335 323 306 320 339 347 350 353 341 335 332 323 289 283 280 260 255 245 238 239 235 233 233 234 241 246 226 200 191 194 195 196 198 194 208 216 208 212 225 236 203 195 214 226 221 223 227 228 223 219 225 231 239 243 245 251 256 273 266 196 171 158 152 169 199 176 172 179 184 185 185 182 182 182 184 183 182 183 185 185 186
343 342 339 337 336 333 335 337 322 302 307 340 354 338 341 345 339 335 327 285 271 275 262 252 237 237 239 231 221 217 222 233 237 233 206 194 197 197 204 211 205 207 214 215 215 222 240 226 202 205 216 222 224 221 221 222 227 226 223 232 242 249 252 254 264 269 173 165 171 141 162 244 194 175 178 181 187 193 184 181 184 184 184 183 182 185 187 188
342 342 339 337 338 336 334 338 328 314 305 311 322 298 303 336 335 332 328 287 277 259 229 205 207 228 224 207 203 200 210 234 229 230 221 202 199 204 208 205 214 218 206 216 228 218 222 228 225 215 207 212 221 224 218 214 227 238 219 220 235 250 258 259 262 261 167 169 194 171 171 238 211 184 180 178 185 196 192 189 191 182 181 182 182 185 188 189
339 341 338 334 339 341 334 328 326 324 321 311 305 292 301 323 335 338 329 262 268 222 176 168 184 199 191 188 184 178 195 230 216 220 224 212 199 203 216 203 203 224 211 206 223 218 205 212 225 230 217 208 214 221 217 211 220 236 227 217 220 234 249 257 262 263 235 177 190 190 177 156 206 208 186 175 181 193 194 198 203 184 180 183 184 186 188 190
336 339 338 330 334 342 329 318 321 330 335 322 320 315 310 321 336 338 318 265 300 189 143 163 186 193 180 176 175 181 196 174 180 208 214 215 199 195 211 219 207 213 214 219 221 214 211 210 215 224 229 220 207 209 210 215 224 229 233 234 222 221 234 246 258 263 252 229 208 197 179 158 215 219 193 176 177 190 195 197 202 190 183 184 185 186 188 192
331 334 337 328 326 332 314 301 307 324 331 324 330 324 315 324 332 329 215 259 297 279 148 169 182 179 168 166 177 197 210 193 191 195 198 208 207 199 209 220 224 226 213 225 238 221 222 222 216 217 227 231 212 201 202 214 225 223 229 244 244 231 228 232 239 253 253 248 236 198 178 175 229 208 186 183 182 187 193 195 196 193 191 188 187 188 189 191
326 327 333 328 324 324 308 294 297 324 331 323 318 319 322 325 321 276 209 246 276 213 134 150 175 185 176 168 183 201 209 225 233 183 184 198 204 207 217 212 220 253 228 223 235 237 241 233 226 222 222 226 225 209 199 208 218 219 223 238 253 253 243 236 227 226 245 249 230 200 186 183 214 212 184 185 191 185 183 190 194 194 196 193 191 191 191 191
322 322 324 324 324 317 305 305 317 314 307 298 294 309 327 327 248 221 213 238 285 219 142 160 184 177 183 185 189 195 200 222 231 190 183 192 194 200 212 206 207 237 248 234 229 232 240 240 237 234 223 217 225 225 204 201 211 218 216 216 239 257 258 261 244 211 227 238 221 212 207 198 208 218 192 185 184 183 181 185 189 192 197 197 193 192 193 194
319 318 317 316 315 303 295 303 319 291 284 283 289 306 324 283 217 230 234 312 261 206 173 198 196 178 192 201 194 189 195 209 220 217 191 183 193 196 199 204 188 195 225 233 228 226 229 235 240 244 233 217 218 226 208 199 205 215 217 197 208 233 238 242 245 220 225 236 214 218 236 224 218 204 188 185 180 181 186 187 187 187 191 194 193 192 194 195
320 317 314 311 304 295 292 300 304 277 277 284 297 306 291 239 224 205 220 253 268 286 309 226 211 196 196 204 208 193 193 201 209 222 204 185 198 201 200 207 196 193 213 213 225 233 227 227 228 239 237 214 215 219 196 198 200 205 211 201 193 204 217 225 237 233 233 246 219 223 240 234 236 218 183 184 184 184 188 189 190 190 191 194 195 195 195 195
324 320 316 310 300 292 288 292 292 261 269 290 300 291 216 236 236 171 203 236 276 305 308 298 290 267 218 204 211 200 197 202 201 217 214 189 197 203 198 205 206 208 212 209 217 220 227 227 212 220 224 202 210 213 199 196 201 207 205 204 208 202 205 210 211 221 232 248 223 222 227 201 211 215 184 184 189 188 190 192 192 193 193 194 197 198 196 196
328 323 315 307 303 301 280 260 258 249 248 260 274 243 214 227 236 190 225 232 250 278 291 297 298 286 255 216 205 204 209 208 197 211 219 196 200 205 191 198 207 208 204 209 213 207 227 237 201 209 219 215 207 199 203 217 216 209 192 207 221 208 201 215 211 215 232 249 232 220 221 186 195 205 183 183 187 186 190 192 192 197 195 191 193 195 195 196
332 332 321 309 312 325 276 227 245 245 220 229 245 229 229 242 249 266 282 274 269 294 315 308 294 273 264 242 212 204 206 209 196 203 219 204 202 207 203 194 197 206 209 203 205 205 220 232 204 205 214 223 215 185 194 217 216 178 199 221 225 199 201 233 241 244 244 242 236 219 242 241 233 242 202 183 183 182 186 188 191 200 197 189 188 191 192 195
338 340 328 316 340 343 277 217 239 235 211 215 239 237 252 274 264 273 293 298 301 316 328 315 304 294 271 249 238 207 194 201 202 201 205 205 205 203 207 205 191 201 212 213 226 224 218 236 214 205 206 216 221 203 197 212 211 183 205 217 224 239 228 219 228 236 232 240 230 212 239 234 214 246 234 194 185 184 189 188 189 196 192 183 182 187 190 191
341 341 324 320 2 349 311 199 206 209 206 221 249 255 271 275 268 280 296 300 307 317 316 299 296 307 293 273 270 232 200 191 200 210 207 206 211 196 199 211 198 197 206 213 228 227 217 249 228 215 208 202 212 217 206 209 211 215 230 194 165 223 230 209 216 208 210 237 242 233 244 227 199 210 209 197 186 182 191 195 194 192 179 172 175 180 185 188
346 338 312 332 15 2 4 191 201 200 213 238 246 258 267 268 270 276 283 289 296 299 295 285 275 289 295 293 291 271 243 217 199 208 216 204 201 193 194 202 202 197 198 204 219 226 213 240 250 232 215 186 192 213 208 195 201 216 243 238 208 210 202 200 221 218 201 218 223 235 245 235 217 208 202 198 183 180 187 190 194 190 169 168 172 176 182 186
343 326 289 113 2 353 9 282 222 207 230 247 244 264 270 273 275 271 273 277 281 279 277 282 279 279 287 291 295 293 285 271 228 206 212 206 194 193 194 195 202 202 194 197 209 218 215 225 255 260 231 195 189 200 193 181 183 199 219 228 229 230 193 192 209 216 208 196 195 221 238 244 241 211 209 214 192 186 188 182 187 188 172 172 174 179 186 191
333 310 264 263 313 320 334 325 256 222 244 248 248 265 267 272 278 276 279 280 278 279 283 287 281 277 282 287 294 298 298 298 277 235 212 204 203 204 195 192 196 202 199 197 201 205 212 216 233 267 252 224 206 188 184 183 186 191 202 218 225 225 207 207 216 216 212 207 205 216 242 255 249 220 218 223 207 199 196 184 183 183 176 177 181 186 191 196
320 282 272 280 303 320 326 320 272 246 248 249 254 261 262 266 266 267 275 278 276 277 280 281 278 278 278 273 282 287 280 290 291 278 257 223 215 209 197 194 193 195 203 210 199 194 199 209 220 243 253 255 242 196 181 183 188 192 199 212 220 221 209 215 228 215 214 221 211 222 252 256 247 235 226 225 222 205 187 177 179 184 182 184 189 191 192 195
302 286 289 296 317 321 313 289 263 261 252 255 258 261 266 270 272 273 276 276 275 275 274 274 272 274 279 276 278 283 277 278 280 279 285 272 235 213 211 207 199 194 197 212 203 185 187 206 213 227 257 272 271 236 187 182 186 196 203 200 210 223 218 223 233 201 200 218 194 206 244 237 232 251 249 238 240 218 181 176 179 186 186 187 192 193 191 192
301 294 294 308 331 311 283 254 272 265 260 266 265 266 267 268 270 271 270 271 274 275 270 272 275 270 271 276 276 275 274 274 275 279 284 287 294 294 251 219 213 211 195 198 197 175 181 199 189 198 230 247 264 265 203 185 185 196 202 192 200 215 218 230 237 209 212 224 203 197 242 235 211 228 256 271 271 273 197 180 178 183 187 189 197 199 190 188
306 295 289 307 321 301 265 249 261 261 268 273 274 273 268 264 271 278 288 292 290 293 287 292 311 305 290 297 303 290 281 276 274 276 280 284 294 308 302 257 231 228 212 200 191 177 185 193 180 194 209 210 224 238 209 185 186 193 198 194 196 205 213 223 229 219 229 229 216 210 232 254 212 200 228 257 267 284 287 190 181 187 191 192 200 201 186 184
306 299 292 309 318 311 294 283 277 272 284 290 291 292 293 299 303 309 320 315 302 311 314 316 339 341 336 347 346 323 314 317 307 291 283 290 288 302 328 327 306 280 268 235 202 187 195 189 188 200 204 205 220 229 227 211 194 191 194 199 200 201 208 209 210 226 224 208 231 233 222 243 249 199 213 238 249 247 253 230 178 175 182 190 202 203 184 183
290 284 293 313 321 317 313 312 314 326 325 319 317 308 308 312 312 311 312 304 305 322 327 322 339 355 358 354 343 322 330 342 342 337 326 319 326 331 331 332 326 314 304 271 207 192 212 193 193 200 203 208 218 227 235 238 226 199 187 195 205 207 211 211 212 224 214 192 247 252 225 230 242 236 229 235 243 237 226 223 194 166 147 156 192 214 194 185
277 278 289 303 312 306 308 315 319 323 318 312 304 293 295 294 295 301 304 303 306 319 329 320 333 358 358 349 342 329 334 343 346 348 348 340 338 338 331 325 331 342 333 302 215 184 173 190 194 197 203 211 221 233 237 240 246 223 191 190 199 206 216 223 224 218 200 207 242 240 224 230 238 245 245 226 221 233 224 209 209 200 157 135 158 191 190 185
278 282 288 297 300 295 298 303 306 306 306 306 303 295 291 287 286 285 289 300 300 306 310 293 306 343 349 338 339 334 331 336 335 340 344 333 328 332 327 317 328 357 352 321 279 214 160 175 197 199 203 206 214 231 242 246 255 249 214 195 195 203 212 219 230 230 212 218 234 226 223 230 228 239 254 240 215 223 233 150 205 219 167 140 145 155 166 176
269 275 290 303 300 292 295 301 304 302 301 302 299 300 304 305 303 296 288 287 286 289 302 297 305 327 331 323 324 318 314 321 322 324 328 324 322 328 323 311 324 337 336 321 307 267 203 191 182 196 214 206 204 215 231 244 255 261 252 222 204 206 207 207 219 231 235 238 234 223 230 241 233 216 250 269 254 222 239 83 298 278 170 147 147 151 155 164
269 274 283 293 295 294 300 304 301 293 292 296 298 309 319 320 314 306 298 293 292 297 317 319 315 322 322 315 312 312 313 314 309 308 309 306 300 295 289 286 310 317 313 310 310 294 251 196 146 128 219 223 204 206 220 233 244 252 254 245 223 211 207 204 206 210 222 236 240 233 230 242 247 221 230 268 268 236 211 179 212 274 214 163 158 156 160 166
282 286 289 287 283 296 300 293 287 282 282 296 311 309 309 313 314 311 306 302 306 313 319 317 314 317 315 305 302 306 311 310 305 299 296 294 289 284 281 279 281 284 287 292 298 295 283 232 150 129 159 235 246 237 228 225 228 236 240 244 245 234 217 213 207 202 207 214 229 242 228 218 221 197 205 245 257 249 235 212 239 260 226 196 192 175 169 175